Regional Weather Roundup
Issued by NWS

Home | Current Version | Previous Version | Graphics & Text | Print | Product List | Glossary On
Versions: 1 2 3 4 5 6 7 8 9 10 11 12 13 14 15 16 17 18 19 20 21 22 23 24 25 26 27 28 29 30 31 32 33 34 35 36 37 38 39 40 41 42 43 44 45 46 47 48 49 50
000
ASUS43 KIND 301309
RWRIN

WEATHER ROUNDUP FOR INDIANA
NATIONAL WEATHER SERVICE INDIANAPOLIS IN
800 AM EST FRI JAN 30 2015

NOTE: "FAIR" INDICATES FEW OR NO CLOUDS BELOW 12,000 FEET WITH NO
SIGNIFICANT WEATHER AND/OR OBSTRUCTIONS TO VISIBILITY.

* - STATION DOES NOT REPORT WEATHER SUCH AS PRECIPITATION OR FOG.

+ - STATION NOT QUALITY CONTROLLED BY THE NATIONAL WEATHER SERVICE.
    USE DATA WITH CAUTION...ESPECIALLY DEWPOINT AND RELATIVE
    HUMIDITY OBSERVATIONS.

INZ001>003-010>013-019-020-301400-
NORTHWEST INDIANA

CITY           SKY/WX    TMP DP  RH WIND       PRES   REMARKS
GARY /AIRPORT/ MOCLDY    27   7  43 NW14G25   30.48R WCI  15
KNOX *+        CLOUDY    27   5  39 N14       30.43R WCI  15
LA PORTE +     MOCLDY    27  14  58 N15G21    30.44R WCI  15
MICHIGAN CITY+ CLOUDY    27   9  46 N15G22    30.45R WCI  15
MONTICELLO +   CLOUDY    25  18  74 NW9       30.44R WCI  15
RENSSELAER +   CLEAR     25  18  74 NW10      30.46R WCI  15
VALPARAISO     FLURRIES  24  18  77 N7        30.45R WCI  16

$$

LMZ046-743>745-301400-
SOUTHERN LAKE MICHIGAN

STATION/POSITION TIME  TEMP WIND        PRES
                       AIR  DIR/SP/G
                 (UTC) (F)  (DEG/KT/KT) (MB)
MICHIGAN CITY    1300   26  350/ 23/ 29   N/A

$$

INZ004-005-014>016-021>024-301400-
NORTH CENTRAL INDIANA

CITY           SKY/WX    TMP DP  RH WIND       PRES   REMARKS
ELKHART        CLOUDY    23  10  58 N6        30.42R WCI  16
GOSHEN         CLOUDY    22  13  68 N15       30.40R WCI   9
LOGANSPORT +   CLOUDY    27  19  74 N9        30.44R WCI  17
PERU/GRISSOM   CLOUDY    25  16  69 N9        30.41R WCI  15
ROCHESTER +    FLURRIES  28  21  74 N15       30.42R WCI  17
SOUTH BEND     CLOUDY    25  13  60 N17       30.42R WCI  12
WARSAW +       CLOUDY    23  16  74 N8        30.41R WCI  14

$$

INZ006>009-017-018-025>027-301400-
NORTHEAST INDIANA

CITY           SKY/WX    TMP DP  RH WIND       PRES   REMARKS
ANGOLA *+      CLOUDY    19  10  68 N9        30.36R WCI   9
AUBURN +       CLOUDY    21  10  63 NW10G20   30.40R WCI  10
FORT WAYNE     MOCLDY    21  11  65 N15       30.41R WCI   8
HUNTINGTON +   CLOUDY    23  11  61 N8        30.40R WCI  14

$$

INZ028-029-035-036-043>045-051>053-301400-
WEST CENTRAL INDIANA

CITY           SKY/WX    TMP DP  RH WIND       PRES   REMARKS
GREENCASTLE +  CLOUDY    28  19  69 N10       30.43R WCI  19
LAFAYETTE      CLEAR     24  12  60 N12       30.46R WCI  13
TERRE HAUTE    CLEAR     29  21  72 N10       30.45R WCI  20

$$

INZ030>032-037>040-046>048-054>057-064-065-301400-
CENTRAL INDIANA

CITY           SKY/WX    TMP DP  RH WIND       PRES   REMARKS
CP ATTERBURY + CLOUDY    30  21  69 N14       30.41R WCI  20
COLUMBUS       CLOUDY    28  19  69 N15       30.41R WCI  17
GREENWOOD *+   MOCLDY    27  14  59 N12       30.42R WCI  16
INDIANAPOLIS   CLOUDY    24  17  74 N10       30.42R WCI  14
-EAGLE CREEK   CLOUDY    26  17  68 N10       30.41R WCI  16
KOKOMO *+      CLOUDY    25  16  68 N12       30.41R WCI  14
MARION +       CLOUDY    23  17  75 N10       30.41R WCI  13
MT COMFORT *+  CLOUDY    27  10  50 N13       30.41R WCI  16
SHELBYVILLE    CLOUDY    29  17  61 N15       30.40R WCI  18
ZIONSVILLE +   MOCLDY    26  15  62 N13G20    30.42R WCI  15

$$

INZ033-034-041-042-049-050-058-059-301400-
EAST CENTRAL INDIANA

CITY           SKY/WX    TMP DP  RH WIND       PRES   REMARKS
MUNCIE         CLOUDY    24  16  71 N20       30.39R WCI  10

$$

INZ060-061-067>069-081>083-085>088-301400-
SOUTHWEST INDIANA

CITY           SKY/WX    TMP DP  RH WIND       PRES   REMARKS
EVANSVILLE     FAIR      33  21  61 NW8       30.47R WCI  26
HUNTINGBURG *+ PTCLDY    30  21  69 NW13      30.44R WCI  20
WASHINGTON +   PTCLDY    31  24  74 NW10      30.45R WCI  22

$$

INZ062-063-066-070>080-084-089>092-301400-
SOUTH CENTRAL AND SOUTHEAST INDIANA

CITY           SKY/WX    TMP DP  RH WIND       PRES   REMARKS
BLOOMINGTON    CLOUDY    29  22  75 N14       30.41R WCI  18
NORTH VERNON + CLOUDY    30  23  74 N13       30.39R WCI  20
SEYMOUR +      FLURRIES  32  25  74 N17G24    30.41R WCI  21

$$




USA.gov is the U.S. government's official web portal to all federal, state and local government web resources and services.